START_TIME,STEP,MOV.,H8,t_acc.,H43,t_acc.,M25,t_acc.,H9,t_acc.
1979-07-04 21:00:30.280 ,0,0,0.,12.0,0.,12.0,0.,12.0,0.,12.0
1979-07-04 21:00:42.280 ,0,0,0.,12.0,0.,12.0,0.,12.0,0.,12.0
1979-07-04 21:00:54.280 ,0,0,0.,12.0,0.,12.0,0.,12.0,0.,12.0
1979-07-04 21:01:06.280 ,0,0,0.,12.0,0.,12.0,0.,12.0,0.,12.0
1979-07-04 21:01:18.280 ,0,0,0.,12.0,0.,12.0,0.,12.0,0.,12.0
1979-07-04 21:01:30.280 ,0,0,0.,12.0,0.,12.0,0.,12.0,0.,12.0
1979-07-04 21:01:42.280 ,1,0,0.,12.0,0.,12.0,0.,12.0,0.,12.0
1979-07-04 21:01:54.280 ,1,0,0.,12.0,0.,12.0,0.,12.0,0.,12.0
1979-07-04 21:02:06.280 ,1,0,0.,12.0,0.,12.0,0.,12.0,0.,12.0
1979-07-04 21:02:18.280 ,1,0,0.,12.0,0.,12.0,0.,12.0,0.,12.0
1979-07-04 21:02:30.280 ,2,0,0.,12.0,0.,12.0,0.,12.0,0.,12.0
1979-07-04 21:02:42.280 ,2,0,0.,12.0,0.,12.0,0.,12.0,0.,12.0
1979-07-04 21:02:54.280 ,2,0,0.,12.0,0.,12.0,0.,12.0,0.,12.0
1979-07-04 21:03:06.280 ,2,0,0.,12.0,0.,12.0,0.,12.0,0.,12.0
1979-07-04 21:03:18.280 ,3,0,0.,12.0,0.,12.0,0.,12.0,0.,12.0
1979-07-04 21:03:30.280 ,3,0,0.,12.0,0.,12.0,0.,12.0,0.,12.0
1979-07-04 21:03:42.280 ,3,0,0.,12.0,0.,12.0,0.,12.0,0.,12.0
1979-07-04 21:03:54.280 ,3,0,0.,12.0,0.,12.0,0.,12.0,0.,12.0
1979-07-04 21:04:06.280 ,4,0,0.,12.0,0.,12.0,0.,12.0,0.,12.0
1979-07-04 21:04:18.280 ,4,0,0.,12.0,0.,12.0,0.,12.0,0.,12.0
1979-07-04 21:04:30.280 ,4,0,0.,12.0,0.,12.0,0.,12.0,0.,12.0
1979-07-04 21:04:42.280 ,4,0,0.,12.0,0.,12.0,0.,12.0,0.,12.0
1979-07-04 21:04:54.280 ,5,0,0.,12.0,0.,12.0,0.,12.0,0.,12.0
1979-07-04 21:05:06.280 ,5,0,0.,12.0,0.,12.0,0.,12.0,0.,12.0
1979-07-04 21:05:18.280 ,5,0,0.,12.0,0.,12.0,0.,12.0,0.,12.0
1979-07-04 21:05:30.280 ,5,0,0.,12.0,0.,12.0,0.,12.0,0.,12.0
1979-07-04 21:05:42.280 ,6,0,0.,12.0,0.,12.0,0.,12.0,0.,12.0
1979-07-04 21:05:54.280 ,6,0,0.,12.0,0.,12.0,0.,12.0,0.,12.0
1979-07-04 21:06:06.280 ,6,0,0.,12.0,0.,12.0,0.,12.0,0.,12.0
1979-07-04 21:06:18.280 ,6,0,0.,12.0,0.,12.0,0.,12.0,0.,12.0
1979-07-04 21:06:30.280 ,7,0,0.,12.0,0.,12.0,0.,12.0,0.,12.0
1979-07-04 21:06:42.280 ,7,0,0.,12.0,0.,12.0,0.,12.0,0.,12.0
1979-07-04 21:06:54.280 ,7,0,0.,12.0,0.,12.0,0.,12.0,0.,12.0
1979-07-04 21:07:06.280 ,7,0,0.,12.0,0.,12.0,0.,12.0,0.,12.0
1979-07-04 21:07:18.280 ,3,1,0.,12.0,0.,12.0,0.,12.0,0.,12.0
1979-07-04 21:07:30.280 ,3,1,0.,12.0,0.,12.0,0.,12.0,0.,12.0
1979-07-04 21:07:42.280 ,0,1,0.,12.0,0.,12.0,0.,12.0,0.,12.0
1979-07-04 21:07:54.280 ,0,1,0.,12.0,0.,12.0,0.,12.0,0.,12.0
1979-07-04 21:08:06.280 ,4,1,0.,12.0,0.,12.0,0.,12.0,0.,12.0
1979-07-04 21:08:18.280 ,4,1,0.,12.0,0.,12.0,0.,12.0,0.,12.0
1979-07-04 21:08:30.280 ,0,0,0.,12.0,0.,12.0,0.,12.0,0.,12.0
1979-07-04 21:08:42.280 ,0,0,0.,12.0,0.,12.0,0.,12.0,0.,12.0
1979-07-04 21:09:00.880 ,0,0,0.,12.0,0.,12.0,0.,12.0,0.,12.0
1979-07-04 21:09:12.880 ,0,0,0.,12.0,0.,12.0,0.,12.0,0.,12.0
1979-07-04 21:09:18.280 ,0,1,0.,12.0,0.,12.0,0.,12.0,0.,12.0
1979-07-04 21:09:30.280 ,0,1,0.,12.0,0.,12.0,0.,12.0,0.,12.0
1979-07-04 21:09:42.280 ,4,1,0.,12.0,0.,12.0,0.,12.0,0.,12.0
1979-07-04 21:09:54.280 ,4,1,0.,12.0,0.,12.0,0.,12.0,0.,12.0
1979-07-04 21:10:06.280 ,7,1,0.,12.0,0.,12.0,0.,12.0,0.,12.0
1979-07-04 21:10:18.280 ,7,1,0.,12.0,0.,12.0,0.,12.0,0.,12.0
1979-07-04 21:10:30.280 ,3,1,0.,12.0,0.,12.0,0.,12.0,0.,12.0
1979-07-04 21:10:42.280 ,3,1,0.,12.0,0.,12.0,0.,12.0,0.,12.0
1979-07-04 21:10:54.280 ,0,1,0.,12.0,0.,12.0,0.,12.0,0.,12.0
1979-07-04 21:11:06.280 ,0,1,0.,12.0,0.,12.0,0.,12.0,0.,12.0
1979-07-04 21:11:18.280 ,4,1,0.,12.0,0.,12.0,0.,12.0,0.,12.0
1979-07-04 21:11:30.280 ,4,1,0.,12.0,0.,12.0,0.,12.0,0.,12.0
1979-07-04 21:11:42.280 ,7,1,0.,12.0,0.,12.0,0.,12.0,0.,12.0
1979-07-04 21:11:54.280 ,7,1,0.,12.0,0.,12.0,0.,12.0,0.,12.0
1979-07-04 21:12:06.280 ,3,1,0.,12.0,0.,12.0,0.,12.0,0.,12.0
1979-07-04 21:12:18.280 ,3,1,0.,12.0,0.,12.0,0.,12.0,0.,12.0
1979-07-04 21:12:30.280 ,0,1,0.,12.0,0.,12.0,0.,12.0,0.,12.0
1979-07-04 21:12:42.280 ,0,1,0.,12.0,0.,12.0,0.,12.0,0.,12.0
1979-07-04 21:12:54.280 ,4,1,0.,12.0,0.,12.0,0.,12.0,0.,12.0
1979-07-04 21:13:06.280 ,4,1,0.,12.0,0.,12.0,0.,12.0,0.,12.0
1979-07-04 21:13:18.280 ,0,0,0.,12.0,0.,12.0,0.,12.0,0.,12.0
1979-07-04 21:13:30.280 ,0,0,0.,12.0,0.,12.0,0.,12.0,0.,12.0
1979-07-04 21:13:53.080 ,0,0,,0,,0,,0,,0
1979-07-04 21:14:05.080 ,0,0,0.,12.0,0.,12.0,0.,12.0,0.,12.0
1979-07-04 23:08:54.270 ,0,0,0.,12.0,0.,12.0,0.,12.0,0.,12.0
1979-07-04 23:09:06.270 ,0,0,0.,12.0,0.,12.0,0.,12.0,0.,12.0
1979-07-04 23:09:18.270 ,0,0,0.,12.0,0.,12.0,0.,12.0,0.,12.0
1979-07-04 23:09:30.270 ,0,0,0.,12.0,0.,12.0,0.,12.0,0.,12.0
1979-07-04 23:09:42.270 ,2,0,0.,12.0,0.,12.0,0.,12.0,0.,12.0
1979-07-04 23:09:54.270 ,2,0,0.,12.0,0.,12.0,0.,12.0,0.,12.0
1979-07-04 23:10:06.270 ,2,0,0.,12.0,0.,12.0,0.,12.0,0.,12.0
1979-07-04 23:10:18.270 ,2,0,0.,12.0,0.,12.0,0.,12.0,0.,12.0
1979-07-04 23:10:30.270 ,1,0,0.,12.0,0.,12.0,0.,12.0,0.,12.0
1979-07-04 23:10:42.270 ,1,0,0.,12.0,0.,12.0,0.,12.0,0.,12.0
1979-07-04 23:10:54.270 ,1,0,0.,12.0,0.,12.0,0.,12.0,0.,12.0
1979-07-04 23:11:06.270 ,1,0,0.,12.0,0.,12.0,0.,12.0,0.,12.0
1979-07-04 23:11:18.270 ,0,0,0.,12.0,0.,12.0,0.,12.0,0.,12.0
1979-07-04 23:11:30.270 ,0,0,0.,12.0,0.,12.0,0.,12.0,0.,12.0
1979-07-04 23:11:42.270 ,0,0,0.,12.0,0.,12.0,0.,12.0,0.,12.0
1979-07-04 23:11:54.270 ,0,0,0.,12.0,0.,12.0,0.,12.0,0.,12.0
1979-07-04 23:12:06.270 ,0,0,0.,12.0,0.,12.0,0.,12.0,0.,12.0
1979-07-04 23:12:18.270 ,0,0,0.,12.0,0.,12.0,0.,12.0,0.,12.0
1979-07-04 23:12:30.270 ,0,0,0.,12.0,0.,12.0,0.,12.0,0.,12.0
1979-07-04 23:12:42.270 ,0,0,0.,12.0,0.,12.0,0.,12.0,0.,12.0
1979-07-04 23:12:54.270 ,1,0,0.,12.0,0.,12.0,0.,12.0,0.,12.0
1979-07-04 23:13:06.270 ,1,0,0.,12.0,0.,12.0,0.,12.0,0.,12.0
1979-07-04 23:13:18.270 ,1,0,0.,12.0,0.,12.0,0.,12.0,0.,12.0
1979-07-04 23:13:30.270 ,1,0,0.,12.0,0.,12.0,0.,12.0,0.,12.0
1979-07-04 23:13:42.270 ,2,0,0.,12.0,0.,12.0,0.,12.0,0.,12.0
1979-07-04 23:13:54.270 ,2,0,0.,12.0,0.,12.0,0.,12.0,0.,12.0
1979-07-04 23:14:06.270 ,2,0,0.,12.0,0.,12.0,0.,12.0,0.,12.0
1979-07-04 23:14:18.270 ,2,0,0.,12.0,0.,12.0,0.,12.0,0.,12.0
1979-07-04 23:14:30.270 ,3,0,0.,12.0,0.,12.0,0.,12.0,0.,12.0
1979-07-04 23:14:42.270 ,3,0,0.,12.0,0.,12.0,0.,12.0,0.,12.0
1979-07-04 23:14:54.270 ,3,0,0.,12.0,0.,12.0,0.,12.0,0.,12.0
1979-07-04 23:15:06.270 ,3,0,0.,12.0,0.,12.0,0.,12.0,0.,12.0
1979-07-04 23:15:18.270 ,4,0,0.,12.0,0.,12.0,0.,12.0,0.,12.0
1979-07-04 23:15:30.270 ,4,0,0.,12.0,0.,12.0,0.,12.0,0.,12.0
1979-07-04 23:15:42.270 ,4,0,0.,12.0,0.,12.0,0.,12.0,0.,12.0
1979-07-04 23:15:54.270 ,4,0,0.,12.0,0.,12.0,0.,12.0,0.,12.0
1979-07-04 23:16:06.270 ,5,0,0.,12.0,0.,12.0,0.,12.0,0.,12.0
1979-07-04 23:16:18.270 ,5,0,0.,12.0,0.,12.0,0.,12.0,0.,12.0
1979-07-04 23:16:30.270 ,5,0,0.,12.0,0.,12.0,0.,12.0,0.,12.0
1979-07-04 23:16:42.270 ,5,0,0.,12.0,0.,12.0,0.,12.0,0.,12.0
1979-07-04 23:16:54.270 ,6,0,0.,12.0,0.,12.0,0.,12.0,0.,12.0
1979-07-04 23:17:06.270 ,6,0,0.,12.0,0.,12.0,0.,12.0,0.,12.0
1979-07-04 23:17:18.270 ,6,0,0.,12.0,0.,12.0,0.,12.0,0.,12.0
1979-07-04 23:17:30.270 ,6,0,0.,12.0,0.,12.0,0.,12.0,0.,12.0
1979-07-04 23:17:42.270 ,7,0,0.,12.0,0.,12.0,0.,12.0,0.,12.0
1979-07-04 23:17:54.270 ,7,0,0.,12.0,0.,12.0,0.,12.0,0.,12.0
1979-07-04 23:18:06.270 ,7,0,0.,12.0,0.,12.0,0.,12.0,0.,12.0
1979-07-04 23:18:18.270 ,7,0,0.,12.0,0.,12.0,0.,12.0,0.,12.0
1979-07-04 23:18:30.270 ,7,0,0.,12.0,0.,12.0,0.,12.0,0.,12.0
1979-07-04 23:18:42.270 ,7,0,0.,12.0,0.,12.0,0.,12.0,0.,12.0
1979-07-04 23:18:54.270 ,7,0,0.,12.0,0.,12.0,0.,12.0,0.,12.0
1979-07-04 23:19:06.270 ,7,0,0.,12.0,0.,12.0,0.,12.0,0.,12.0
1979-07-04 23:19:18.270 ,6,0,0.,12.0,0.,12.0,0.,12.0,0.,12.0
1979-07-04 23:19:30.270 ,6,0,0.,12.0,0.,12.0,0.,12.0,0.,12.0
1979-07-04 23:19:42.270 ,6,0,0.,12.0,0.,12.0,0.,12.0,0.,12.0
1979-07-04 23:19:54.270 ,6,0,0.,12.0,0.,12.0,0.,12.0,0.,12.0
1979-07-04 23:20:06.270 ,5,0,0.,12.0,0.,12.0,0.,12.0,0.,12.0
1979-07-04 23:20:18.270 ,5,0,0.,12.0,0.,12.0,0.,12.0,0.,12.0
1979-07-04 23:20:30.270 ,5,0,0.,12.0,0.,12.0,0.,12.0,0.,12.0
1979-07-04 23:20:42.270 ,5,0,0.,12.0,0.,12.0,0.,12.0,0.,12.0
1979-07-04 23:20:54.270 ,4,0,0.,12.0,0.,12.0,0.,12.0,0.,12.0
1979-07-04 23:21:06.270 ,4,0,0.,12.0,0.,12.0,0.,12.0,0.,12.0
1979-07-04 23:21:18.270 ,4,0,1.,12.0,0.,12.0,0.,12.0,0.,12.0
1979-07-04 23:21:30.270 ,4,0,0.,12.0,0.,12.0,0.,12.0,0.,12.0
1979-07-04 23:21:42.270 ,3,0,0.,12.0,0.,12.0,0.,12.0,0.,12.0
1979-07-04 23:21:54.270 ,3,0,0.,12.0,0.,12.0,0.,12.0,0.,12.0
1979-07-04 23:22:06.270 ,3,0,0.,12.0,0.,12.0,0.,12.0,0.,12.0
1979-07-04 23:22:18.270 ,3,0,0.,12.0,0.,12.0,0.,12.0,0.,12.0
1979-07-04 23:22:30.270 ,2,0,0.,12.0,0.,12.0,0.,12.0,0.,12.0
1979-07-04 23:22:42.270 ,2,0,0.,12.0,0.,12.0,0.,12.0,0.,12.0
1979-07-04 23:22:54.270 ,2,0,0.,12.0,0.,12.0,0.,12.0,0.,12.0
1979-07-04 23:23:06.270 ,2,0,0.,12.0,0.,12.0,0.,12.0,0.,12.0
1979-07-04 23:23:18.270 ,1,0,0.,12.0,0.,12.0,0.,12.0,0.,12.0
1979-07-04 23:23:30.270 ,1,0,0.,12.0,0.,12.0,0.,12.0,0.,12.0
1979-07-04 23:23:42.270 ,1,0,0.,12.0,0.,12.0,0.,12.0,0.,12.0
1979-07-04 23:23:54.270 ,1,0,0.,12.0,0.,12.0,0.,12.0,0.,12.0
1979-07-04 23:24:06.270 ,0,0,0.,12.0,0.,12.0,0.,12.0,0.,12.0
1979-07-04 23:24:18.270 ,0,0,0.,12.0,0.,12.0,0.,12.0,0.,12.0
1979-07-04 23:24:30.270 ,0,0,0.,12.0,0.,12.0,0.,12.0,0.,12.0
1979-07-04 23:24:42.270 ,0,0,0.,12.0,0.,12.0,0.,12.0,0.,12.0
1979-07-04 23:24:54.270 ,0,0,0.,12.0,0.,12.0,0.,12.0,0.,12.0
1979-07-04 23:25:06.270 ,0,0,0.,12.0,0.,12.0,0.,12.0,0.,12.0
1979-07-04 23:25:18.270 ,0,0,0.,12.0,0.,12.0,0.,12.0,0.,12.0
1979-07-04 23:25:30.270 ,0,0,0.,12.0,0.,12.0,0.,12.0,0.,12.0
1979-07-04 23:25:42.270 ,1,0,0.,12.0,0.,12.0,0.,12.0,0.,12.0
1979-07-04 23:25:54.270 ,1,0,0.,12.0,0.,12.0,0.,12.0,0.,12.0
1979-07-04 23:26:06.270 ,1,0,1.,12.0,0.,12.0,0.,12.0,0.,12.0
1979-07-04 23:26:18.270 ,1,0,0.,12.0,0.,12.0,0.,12.0,0.,12.0
1979-07-04 23:26:30.270 ,2,0,0.,12.0,0.,12.0,0.,12.0,0.,12.0
1979-07-04 23:26:42.270 ,2,0,0.,12.0,0.,12.0,0.,12.0,0.,12.0
1979-07-04 23:26:54.270 ,2,0,0.,12.0,0.,12.0,0.,12.0,0.,12.0
1979-07-04 23:27:06.270 ,2,0,0.,12.0,0.,12.0,0.,12.0,0.,12.0
1979-07-04 23:27:18.270 ,3,0,0.,12.0,0.,12.0,0.,12.0,0.,12.0
1979-07-04 23:27:30.270 ,3,0,0.,12.0,0.,12.0,0.,12.0,0.,12.0
1979-07-04 23:27:42.270 ,3,0,0.,12.0,0.,12.0,0.,12.0,0.,12.0
1979-07-04 23:27:54.270 ,3,0,0.,12.0,0.,12.0,0.,12.0,0.,12.0
1979-07-04 23:28:06.270 ,4,0,0.,12.0,0.,12.0,0.,12.0,0.,12.0
1979-07-04 23:28:18.270 ,4,0,0.,12.0,0.,12.0,0.,12.0,0.,12.0
1979-07-04 23:28:30.270 ,4,0,0.,12.0,0.,12.0,0.,12.0,0.,12.0
1979-07-04 23:28:42.270 ,4,0,0.,12.0,0.,12.0,0.,12.0,0.,12.0
1979-07-04 23:28:54.270 ,5,0,0.,12.0,0.,12.0,0.,12.0,0.,12.0
1979-07-04 23:29:06.270 ,5,0,0.,12.0,0.,12.0,0.,12.0,0.,12.0
1979-07-04 23:29:18.270 ,5,0,0.,12.0,0.,12.0,0.,12.0,0.,12.0
1979-07-04 23:29:30.270 ,5,0,0.,12.0,0.,12.0,0.,12.0,0.,12.0
1979-07-04 23:29:42.270 ,6,0,0.,12.0,0.,12.0,0.,12.0,0.,12.0
1979-07-04 23:29:54.270 ,6,0,0.,12.0,0.,12.0,0.,12.0,0.,12.0
1979-07-04 23:30:06.270 ,6,0,0.,12.0,0.,12.0,0.,12.0,0.,12.0
1979-07-04 23:30:18.270 ,6,0,0.,12.0,0.,12.0,0.,12.0,0.,12.0
1979-07-04 23:30:30.270 ,7,0,0.,12.0,0.,12.0,0.,12.0,0.,12.0
1979-07-04 23:30:42.270 ,7,0,0.,12.0,0.,12.0,0.,12.0,0.,12.0
1979-07-04 23:30:54.270 ,7,0,0.,12.0,0.,12.0,0.,12.0,0.,12.0
1979-07-04 23:31:06.270 ,7,0,0.,12.0,0.,12.0,0.,12.0,0.,12.0
1979-07-04 23:31:18.270 ,3,1,0.,12.0,0.,12.0,0.,12.0,0.,12.0
1979-07-04 23:31:30.270 ,3,1,0.,12.0,0.,12.0,0.,12.0,0.,12.0
1979-07-04 23:31:42.270 ,0,1,0.,12.0,0.,12.0,0.,12.0,0.,12.0
1979-07-04 23:31:54.270 ,0,1,0.,12.0,0.,12.0,0.,12.0,0.,12.0
1979-07-04 23:32:06.270 ,4,1,0.,12.0,0.,12.0,0.,12.0,0.,12.0
1979-07-04 23:32:18.270 ,4,1,0.,12.0,0.,12.0,0.,12.0,0.,12.0
1979-07-04 23:32:30.270 ,7,1,0.,12.0,0.,12.0,0.,12.0,0.,12.0
1979-07-04 23:32:42.270 ,7,1,0.,12.0,0.,12.0,0.,12.0,0.,12.0
1979-07-04 23:32:54.270 ,3,1,0.,12.0,0.,12.0,0.,12.0,0.,12.0
1979-07-04 23:33:06.270 ,3,1,0.,12.0,0.,12.0,0.,12.0,0.,12.0
1979-07-04 23:33:18.270 ,0,1,0.,12.0,0.,12.0,0.,12.0,0.,12.0
1979-07-04 23:33:30.270 ,0,1,0.,12.0,0.,12.0,0.,12.0,0.,12.0
1979-07-04 23:33:42.270 ,4,1,0.,12.0,0.,12.0,0.,12.0,0.,12.0
1979-07-04 23:33:54.270 ,4,1,0.,12.0,0.,12.0,0.,12.0,0.,12.0
1979-07-04 23:34:06.270 ,7,1,0.,12.0,0.,12.0,0.,12.0,0.,12.0
1979-07-04 23:34:18.270 ,7,1,0.,12.0,0.,12.0,0.,12.0,0.,12.0
1979-07-04 23:34:30.270 ,3,1,0.,12.0,0.,12.0,0.,12.0,0.,12.0
1979-07-04 23:34:42.270 ,3,1,0.,12.0,0.,12.0,0.,12.0,0.,12.0
1979-07-04 23:34:54.270 ,0,1,0.,12.0,0.,12.0,0.,12.0,0.,12.0
1979-07-04 23:35:06.270 ,0,1,0.,12.0,0.,12.0,0.,12.0,0.,12.0
1979-07-04 23:35:18.270 ,4,1,0.,12.0,0.,12.0,0.,12.0,0.,12.0
1979-07-04 23:35:30.270 ,4,1,0.,12.0,0.,12.0,0.,12.0,0.,12.0
1979-07-04 23:35:42.270 ,7,1,0.,12.0,0.,12.0,0.,12.0,0.,12.0
1979-07-04 23:35:54.270 ,7,1,0.,12.0,0.,12.0,0.,12.0,0.,12.0
1979-07-04 23:36:06.270 ,3,1,0.,12.0,0.,12.0,0.,12.0,0.,12.0
1979-07-04 23:36:18.270 ,3,1,0.,12.0,0.,12.0,0.,12.0,0.,12.0
1979-07-04 23:36:30.270 ,0,1,0.,12.0,0.,12.0,0.,12.0,0.,12.0
1979-07-04 23:36:42.270 ,0,1,0.,12.0,0.,12.0,0.,12.0,0.,12.0
1979-07-04 23:36:54.270 ,4,1,0.,12.0,0.,12.0,0.,12.0,0.,12.0
1979-07-04 23:37:06.270 ,4,1,0.,12.0,0.,12.0,0.,12.0,0.,12.0
1979-07-04 23:37:18.270 ,7,1,0.,12.0,0.,12.0,0.,12.0,0.,12.0
1979-07-04 23:37:30.270 ,7,1,0.,12.0,0.,12.0,0.,12.0,0.,12.0
1979-07-04 23:37:42.270 ,3,1,0.,12.0,0.,12.0,0.,12.0,0.,12.0
1979-07-04 23:37:54.270 ,3,1,0.,12.0,0.,12.0,0.,12.0,0.,12.0
1979-07-04 23:38:06.270 ,0,1,0.,12.0,0.,12.0,0.,12.0,0.,12.0
1979-07-04 23:38:18.270 ,0,1,0.,12.0,0.,12.0,0.,12.0,0.,12.0
1979-07-04 23:38:30.270 ,4,1,0.,12.0,0.,12.0,0.,12.0,0.,12.0
1979-07-04 23:38:42.270 ,4,1,0.,12.0,0.,12.0,0.,12.0,0.,12.0
1979-07-04 23:38:54.270 ,7,1,0.,12.0,0.,12.0,0.,12.0,0.,12.0
1979-07-04 23:39:06.270 ,7,1,0.,12.0,0.,12.0,0.,12.0,0.,12.0
1979-07-04 23:39:18.270 ,3,1,0.,12.0,0.,12.0,0.,12.0,0.,12.0
1979-07-04 23:39:30.270 ,3,1,0.,12.0,0.,12.0,0.,12.0,0.,12.0
1979-07-04 23:39:42.270 ,0,1,0.,12.0,0.,12.0,0.,12.0,0.,12.0
1979-07-04 23:39:54.270 ,0,1,0.,12.0,0.,12.0,0.,12.0,0.,12.0
1979-07-04 23:40:06.270 ,4,1,0.,12.0,0.,12.0,0.,12.0,0.,12.0
1979-07-04 23:40:18.270 ,4,1,0.,12.0,0.,12.0,0.,12.0,0.,12.0
1979-07-04 23:40:30.270 ,7,1,0.,12.0,0.,12.0,0.,12.0,0.,12.0
1979-07-04 23:40:42.270 ,7,1,0.,12.0,0.,12.0,0.,12.0,0.,12.0
1979-07-04 23:40:54.270 ,3,1,0.,12.0,0.,12.0,0.,12.0,0.,12.0
1979-07-04 23:41:06.270 ,3,1,0.,12.0,0.,12.0,0.,12.0,0.,12.0
1979-07-04 23:41:18.270 ,0,1,0.,12.0,0.,12.0,0.,12.0,0.,12.0
1979-07-04 23:41:30.270 ,0,1,0.,12.0,0.,12.0,0.,12.0,0.,12.0
1979-07-04 23:41:42.270 ,0,0,0.,12.0,0.,12.0,0.,12.0,0.,12.0
1979-07-04 23:41:54.270 ,0,0,0.,12.0,0.,12.0,0.,12.0,0.,12.0
1979-07-04 23:42:06.270 ,0,0,0.,12.0,0.,12.0,0.,12.0,0.,12.0
1979-07-04 23:42:18.270 ,0,0,0.,12.0,0.,12.0,0.,12.0,0.,12.0
1979-07-04 23:42:30.270 ,5,0,0.,12.0,0.,12.0,0.,12.0,0.,12.0
1979-07-04 23:42:42.270 ,5,0,0.,12.0,0.,12.0,0.,12.0,0.,12.0
1979-07-04 23:42:54.270 ,5,0,0.,12.0,0.,12.0,0.,12.0,0.,12.0
1979-07-04 23:43:06.270 ,5,0,0.,12.0,0.,12.0,0.,12.0,0.,12.0
1979-07-04 23:43:18.270 ,4,0,0.,12.0,0.,12.0,0.,12.0,0.,12.0
1979-07-04 23:43:30.270 ,4,0,0.,12.0,0.,12.0,0.,12.0,0.,12.0
1979-07-04 23:43:42.270 ,4,0,1.,12.0,0.,12.0,0.,12.0,0.,12.0
1979-07-04 23:43:54.270 ,4,0,0.,12.0,0.,12.0,0.,12.0,0.,12.0
1979-07-04 23:44:06.270 ,3,0,0.,12.0,0.,12.0,0.,12.0,0.,12.0
1979-07-04 23:44:18.270 ,3,0,0.,12.0,0.,12.0,0.,12.0,0.,12.0
1979-07-04 23:44:30.270 ,3,0,0.,12.0,0.,12.0,0.,12.0,0.,12.0
1979-07-04 23:44:42.270 ,3,0,0.,12.0,0.,12.0,0.,12.0,0.,12.0
1979-07-04 23:44:54.270 ,2,0,0.,12.0,0.,12.0,0.,12.0,0.,12.0
1979-07-04 23:45:06.270 ,2,0,0.,12.0,0.,12.0,0.,12.0,0.,12.0
1979-07-04 23:45:18.270 ,2,0,0.,12.0,0.,12.0,0.,12.0,0.,12.0
1979-07-04 23:45:30.270 ,2,0,0.,12.0,0.,12.0,0.,12.0,0.,12.0
1979-07-04 23:45:42.270 ,1,0,0.,12.0,0.,12.0,0.,12.0,0.,12.0
1979-07-04 23:45:54.270 ,1,0,0.,12.0,0.,12.0,0.,12.0,0.,12.0
1979-07-04 23:46:06.270 ,1,0,0.,12.0,0.,12.0,0.,12.0,0.,12.0
1979-07-04 23:46:18.270 ,1,0,0.,12.0,0.,12.0,0.,12.0,0.,12.0
1979-07-04 23:46:30.270 ,0,0,0.,12.0,0.,12.0,0.,12.0,0.,12.0
1979-07-04 23:46:42.270 ,0,0,0.,12.0,0.,12.0,0.,12.0,0.,12.0
1979-07-04 23:46:54.270 ,0,0,0.,12.0,0.,12.0,0.,12.0,0.,12.0
1979-07-04 23:47:06.270 ,0,0,0.,12.0,0.,12.0,0.,12.0,0.,12.0
1979-07-04 23:47:18.270 ,0,0,0.,12.0,0.,12.0,0.,12.0,0.,12.0
1979-07-04 23:47:30.270 ,0,0,0.,12.0,0.,12.0,0.,12.0,0.,12.0
1979-07-04 23:47:42.270 ,0,0,0.,12.0,0.,12.0,0.,12.0,0.,12.0
1979-07-04 23:47:54.270 ,0,0,0.,12.0,0.,12.0,0.,12.0,0.,12.0
1979-07-04 23:48:06.270 ,1,0,0.,12.0,0.,12.0,0.,12.0,0.,12.0
1979-07-04 23:48:18.270 ,1,0,0.,12.0,0.,12.0,0.,12.0,0.,12.0
1979-07-04 23:48:30.270 ,1,0,0.,12.0,0.,12.0,0.,12.0,0.,12.0
1979-07-04 23:48:42.270 ,1,0,0.,12.0,0.,12.0,0.,12.0,0.,12.0
1979-07-04 23:48:54.270 ,2,0,0.,12.0,0.,12.0,0.,12.0,0.,12.0
1979-07-04 23:49:06.270 ,2,0,0.,12.0,0.,12.0,0.,12.0,0.,12.0
1979-07-04 23:49:18.270 ,2,0,0.,12.0,0.,12.0,0.,12.0,0.,12.0
1979-07-04 23:49:30.270 ,2,0,0.,12.0,0.,12.0,0.,12.0,0.,12.0
1979-07-04 23:49:42.270 ,3,0,0.,12.0,0.,12.0,0.,12.0,0.,12.0
1979-07-04 23:49:54.270 ,3,0,0.,12.0,0.,12.0,0.,12.0,0.,12.0
1979-07-04 23:50:06.270 ,3,0,0.,12.0,0.,12.0,0.,12.0,0.,12.0
1979-07-04 23:50:18.270 ,3,0,0.,12.0,0.,12.0,0.,12.0,0.,12.0
1979-07-04 23:50:30.270 ,4,0,0.,12.0,0.,12.0,0.,12.0,0.,12.0
1979-07-04 23:50:42.270 ,4,0,0.,12.0,0.,12.0,0.,12.0,0.,12.0
1979-07-04 23:50:54.270 ,4,0,0.,12.0,0.,12.0,0.,12.0,0.,12.0
1979-07-04 23:51:06.270 ,4,0,0.,12.0,0.,12.0,0.,12.0,0.,12.0
1979-07-04 23:51:18.270 ,5,0,0.,12.0,0.,12.0,0.,12.0,0.,12.0
1979-07-04 23:51:30.270 ,5,0,0.,12.0,0.,12.0,0.,12.0,0.,12.0
1979-07-04 23:51:42.270 ,5,0,0.,12.0,0.,12.0,0.,12.0,0.,12.0
1979-07-04 23:51:54.270 ,5,0,0.,12.0,0.,12.0,0.,12.0,0.,12.0
1979-07-04 23:52:06.270 ,6,0,1.,12.0,0.,12.0,0.,12.0,0.,12.0
1979-07-04 23:52:18.270 ,6,0,0.,12.0,0.,12.0,0.,12.0,0.,12.0
1979-07-04 23:52:30.270 ,6,0,0.,12.0,0.,12.0,0.,12.0,0.,12.0
1979-07-04 23:52:42.270 ,6,0,0.,12.0,0.,12.0,0.,12.0,0.,12.0
1979-07-04 23:52:54.270 ,7,0,0.,12.0,0.,12.0,0.,12.0,0.,12.0
1979-07-04 23:53:06.270 ,7,0,0.,12.0,0.,12.0,0.,12.0,0.,12.0
1979-07-04 23:53:18.270 ,7,0,0.,12.0,0.,12.0,0.,12.0,0.,12.0
1979-07-04 23:53:30.270 ,7,0,0.,12.0,0.,12.0,0.,12.0,0.,12.0
1979-07-04 23:53:42.270 ,7,0,0.,12.0,0.,12.0,0.,12.0,0.,12.0
1979-07-04 23:53:54.270 ,7,0,0.,12.0,0.,12.0,0.,12.0,0.,12.0
1979-07-04 23:54:06.270 ,7,0,0.,12.0,0.,12.0,0.,12.0,0.,12.0
1979-07-04 23:54:18.270 ,7,0,0.,12.0,0.,12.0,0.,12.0,0.,12.0
1979-07-04 23:54:30.270 ,6,0,0.,12.0,0.,12.0,0.,12.0,0.,12.0
1979-07-04 23:54:42.270 ,6,0,0.,12.0,0.,12.0,0.,12.0,0.,12.0
1979-07-04 23:54:54.270 ,6,0,0.,12.0,0.,12.0,0.,12.0,0.,12.0
1979-07-04 23:55:06.270 ,6,0,0.,12.0,0.,12.0,0.,12.0,0.,12.0
1979-07-04 23:55:18.270 ,5,0,0.,12.0,0.,12.0,0.,12.0,0.,12.0
1979-07-04 23:55:30.270 ,5,0,0.,12.0,0.,12.0,0.,12.0,0.,12.0
1979-07-04 23:55:42.270 ,5,0,0.,12.0,0.,12.0,0.,12.0,0.,12.0
1979-07-04 23:55:54.270 ,5,0,0.,12.0,0.,12.0,0.,12.0,0.,12.0
1979-07-04 23:56:06.270 ,4,0,0.,12.0,0.,12.0,0.,12.0,0.,12.0
1979-07-04 23:56:18.270 ,4,0,1.,12.0,0.,12.0,0.,12.0,0.,12.0
1979-07-04 23:56:30.270 ,4,0,0.,12.0,0.,12.0,0.,12.0,0.,12.0
1979-07-04 23:56:42.270 ,4,0,0.,12.0,0.,12.0,0.,12.0,0.,12.0
1979-07-04 23:56:54.270 ,3,0,0.,12.0,0.,12.0,0.,12.0,0.,12.0
1979-07-04 23:57:06.270 ,3,0,0.,12.0,0.,12.0,0.,12.0,0.,12.0
1979-07-04 23:57:18.270 ,3,0,0.,12.0,0.,12.0,0.,12.0,0.,12.0
1979-07-04 23:57:30.270 ,3,0,0.,12.0,0.,12.0,0.,12.0,0.,12.0
1979-07-04 23:57:42.270 ,2,0,0.,12.0,0.,12.0,0.,12.0,0.,12.0
1979-07-04 23:57:54.270 ,2,0,0.,12.0,0.,12.0,0.,12.0,0.,12.0
1979-07-04 23:58:06.270 ,2,0,0.,12.0,0.,12.0,0.,12.0,0.,12.0
1979-07-04 23:58:18.270 ,2,0,0.,12.0,0.,12.0,0.,12.0,0.,12.0
1979-07-04 23:58:30.270 ,1,0,0.,12.0,0.,12.0,0.,12.0,0.,12.0
1979-07-04 23:58:42.270 ,1,0,0.,12.0,0.,12.0,0.,12.0,0.,12.0
1979-07-04 23:58:54.270 ,1,0,0.,12.0,0.,12.0,0.,12.0,0.,12.0
1979-07-04 23:59:06.270 ,1,0,0.,12.0,0.,12.0,0.,12.0,0.,12.0
1979-07-04 23:59:18.270 ,0,0,0.,12.0,0.,12.0,0.,12.0,0.,12.0
1979-07-04 23:59:30.270 ,0,0,0.,12.0,0.,12.0,0.,12.0,0.,12.0
1979-07-04 23:59:42.270 ,0,0,0.,12.0,0.,12.0,0.,12.0,0.,12.0
1979-07-04 23:59:54.270 ,0,0,0.,12.0,0.,12.0,0.,12.0,0.,12.0
1979-07-05 00:00:06.270 ,0,0,0.,12.0,0.,12.0,0.,12.0,0.,12.0
1979-07-05 00:00:18.270 ,0,0,0.,12.0,0.,12.0,0.,12.0,0.,12.0
